CAPE
0 0 0 0 0 0 0 0 0 0 0 0 0 0 0 0 0 0 0 0 0 0 0 0 0 0 1 3 3 3 2 3 4 3 9 18 16 15 15 57 140 184 203 108 2 0 0 0 0
0 0 0 0 0 0 0 0 0 0 0 0 0 0 0 0 0 0 0 0 0 0 0 0 0 0 0 2 3 3 2 2 3 2 7 12 16 16 11 8 13 73 119 108 23 0 0 0 0
0 0 0 0 0 0 0 0 0 0 0 0 0 0 0 0 0 0 0 0 0 0 0 0 0 0 0 1 1 1 1 1 1 4 2 9 13 16 12 5 6 6 53 44 43 2 0 0 0
0 0 0 0 0 0 0 0 0 0 0 0 0 0 0 0 0 0 0 0 0 0 0 0 0 0 0 0 0 0 0 1 0 1 3 4 3 6 11 7 3 4 6 21 49 0 0 0 0
0 0 0 0 0 0 0 0 0 0 0 0 0 0 0 0 0 0 0 0 0 0 0 0 0 0 0 0 0 0 0 0 0 0 0 1 3 3 8 10 5 3 3 4 16 3 10 0 0
0 0 0 0 0 0 0 0 0 0 0 0 0 0 0 0 0 0 0 0 0 0 0 0 0 0 0 0 0 0 0 0 0 0 0 0 1 2 0 1 8 7 5 4 4 16 4 0 0
0 0 0 0 0 0 0 0 0 0 0 0 0 0 0 0 0 0 0 0 0 0 0 0 0 0 0 0 0 0 0 0 0 0 0 0 0 1 3 2 2 8 7 5 3 1 2 0 0
0 0 0 0 0 0 0 0 0 0 0 0 0 0 0 0 0 0 0 0 0 0 0 0 0 0 0 0 0 0 0 0 0 0 0 0 0 0 0 0 1 1 6 6 4 4 0 0 0
0 0 0 0 0 0 0 0 0 0 0 0 0 0 0 0 0 0 0 0 0 0 0 0 0 0 0 0 0 0 0 0 0 0 0 0 0 0 0 0 0 0 0 2 5 5 1 0 0
0 0 0 0 0 0 0 0 0 0 0 0 0 0 0 0 0 0 0 0 0 0 0 0 0 0 0 0 0 0 0 0 0 0 0 0 0 0 0 0 0 0 0 0 0 0 0 0 0
0 0 0 0 0 0 0 0 0 0 0 0 0 0 0 0 0 0 0 0 0 0 0 0 0 0 0 0 0 0 0 0 0 0 0 0 0 0 0 0 0 0 0 0 0 0 0 0 0
0 0 0 0 0 0 0 0 0 0 0 0 0 0 0 0 0 0 0 0 0 0 0 0 0 0 0 0 0 0 0 0 0 0 0 0 0 0 0 0 0 0 0 0 0 0 0 0 0
0 0 0 0 0 0 0 0 0 0 0 0 0 0 0 0 0 0 0 0 0 0 0 0 0 0 0 0 0 0 0 0 0 0 0 0 0 0 0 0 0 0 0 0 0 0 0 0 0
0 0 0 0 0 0 0 0 0 0 0 0 0 0 0 0 0 0 0 0 0 0 0 0 0 0 0 0 0 0 0 0 0 0 0 0 0 0 0 0 0 0 0 0 0 0 0 0 0
0 0 0 0 0 0 0 0 0 0 0 0 0 0 0 0 0 0 0 0 0 0 0 0 0 0 0 0 0 0 0 0 0 0 0 0 0 0 0 0 0 0 0 0 0 0 0 0 0
0 0 0 0 0 0 0 0 0 0 0 0 0 0 0 0 0 0 0 0 0 0 0 0 0 0 0 0 0 0 0 0 0 0 0 0 0 0 0 0 0 0 0 0 0 0 0 0 0
0 0 0 0 0 0 0 0 0 0 0 0 0 0 0 0 0 0 0 0 0 0 0 0 0 0 0 0 0 0 0 0 0 0 0 0 0 0 0 0 0 0 0 0 0 0 0 0 0
0 0 0 0 0 0 0 0 0 0 0 0 0 0 0 0 0 0 0 0 0 0 0 0 0 0 0 0 0 0 0 0 0 0 0 0 0 0 0 0 0 0 0 0 0 0 0 0 0
0 0 0 0 0 0 0 0 0 0 0 0 0 0 0 0 0 0 0 0 0 0 0 0 0 0 0 0 0 0 0 0 0 0 0 0 0 0 0 0 0 0 0 0 0 0 0 0 0
0 0 0 0 0 0 0 0 0 0 0 0 0 0 0 0 0 0 0 0 0 0 0 0 0 0 0 0 0 0 0 0 0 0 0 0 0 0 0 0 0 0 0 0 0 0 0 0 0
0 0 0 0 0 0 0 0 0 0 0 0 0 0 0 0 0 0 0 0 0 0 0 0 0 0 0 0 0 0 0 0 0 0 0 0 0 0 0 0 0 0 0 0 0 0 0 0 0
0 0 0 0 0 0 0 0 0 0 0 0 0 0 0 0 0 0 0 0 0 0 0 0 0 0 0 0 0 0 0 0 0 0 0 0 0 0 0 0 0 0 0 0 0 0 0 0 0
0 0 0 0 0 0 0 0 0 0 0 0 0 0 0 0 0 0 0 0 0 0 0 0 0 0 0 0 0 0 0 0 0 0 0 0 0 0 0 0 0 0 0 0 0 0 0 0 0
0 0 0 0 0 0 0 0 0 0 0 0 0 0 0 0 0 0 0 0 0 0 0 0 0 0 0 0 0 0 0 0 0 0 0 0 0 0 0 0 0 0 0 0 0 0 0 0 0
0 0 0 0 0 0 0 0 0 0 0 0 0 0 0 0 0 0 0 0 0 0 0 0 0 0 0 0 0 0 0 0 0 0 0 0 0 0 0 0 0 0 0 0 0 0 0 0 0
0 0 0 0 0 0 0 0 0 0 0 0 0 0 0 0 0 0 0 0 0 0 0 0 0 0 0 0 0 0 0 0 0 0 0 0 0 0 0 0 0 0 0 0 0 0 0 0 0
0 0 0 0 0 0 0 0 0 0 0 0 0 0 0 0 0 0 0 0 0 0 0 0 0 0 0 0 0 0 0 0 0 0 0 0 0 0 0 0 0 0 0 0 0 0 0 0 0
0 0 0 0 0 0 0 0 0 0 0 0 0 0 0 0 0 0 0 0 0 0 0 0 0 0 0 0 0 0 0 0 0 0 0 0 0 0 0 0 0 0 0 0 0 0 0 0 0
0 0 0 0 0 0 0 0 0 0 0 0 0 0 0 0 0 0 0 0 0 0 0 0 0 0 0 0 0 0 0 0 0 0 0 0 0 0 0 0 0 0 0 0 0 0 0 0 0
0 0 0 0 0 0 0 0 0 0 0 0 0 0 0 0 0 0 0 0 0 0 0 0 0 0 0 0 0 0 0 0 0 0 0 0 0 0 0 0 0 0 0 0 0 0 0 0 0
CIN
-0 -0 -0 -0 -0 -0 -0 -0 -0 -0 -0 -0 -0 -0 -0 -0 -0 -0 -0 -0 -0 -0 -0 -0 -0 -0 -0 -0 -1 -0 -0 -0 -0 -0 -0 -0 -0 -0 -0 -12 -2 -0 -0 -0 -0 -0 -0 -0 -0
-0 -0 -0 -0 -0 -0 -0 -0 -0 -0 -0 -0 -0 -0 -0 -0 -0 -0 -0 -0 -0 -0 -0 -0 -0 -0 -0 -0 -0 -0 -0 -0 -1 -0 -0 -0 -0 -0 -0 -0 -0 -1 -0 -0 -0 -0 -0 -0 -0
-0 -0 -0 -0 -0 -0 -0 -0 -0 -0 -0 -0 -0 -0 -0 -0 -0 -0 -0 -0 -0 -0 -0 -0 -0 -0 -0 -0 -0 -0 -0 -0 -0 -0 -0 -0 -0 -0 -0 -0 -0 -0 -0 -0 -1 -1 -0 -0 -0
-0 -0 -0 -0 -0 -0 -0 -0 -0 -0 -0 -0 -0 -0 -0 -0 -0 -0 -0 -0 -0 -0 -0 -0 -0 -0 -0 -0 -0 -0 -0 -0 -0 -0 -0 -0 -3 -0 -0 -0 -0 -0 -0 -0 -1 -0 -0 -0 -0
-0 -0 -0 -0 -0 -0 -0 -0 -0 -0 -0 -0 -0 -0 -0 -0 -0 -0 -0 -0 -0 -0 -0 -0 -0 -0 -0 -0 -0 -0 -0 -0 -0 -0 -0 -0 -0 -0 -0 -0 -0 -0 -0 -4 -0 -0 -0 -0 -0
-0 -0 -0 -0 -0 -0 -0 -0 -0 -0 -0 -0 -0 -0 -0 -0 -0 -0 -0 -0 -0 -0 -0 -0 -0 -0 -0 -0 -0 -0 -0 -0 -0 -0 -0 -0 -0 -0 -0 -0 -0 -0 -0 -0 -0 -0 -0 -0 -0
-0 -0 -0 -0 -0 -0 -0 -0 -0 -0 -0 -0 -0 -0 -0 -0 -0 -0 -0 -0 -0 -0 -0 -0 -0 -0 -0 -0 -0 -0 -0 -0 -0 -0 -0 -0 -0 -0 -0 -0 -0 -0 -0 -0 -0 -0 -2 -0 -0
-0 -0 -0 -0 -0 -0 -0 -0 -0 -0 -0 -0 -0 -0 -0 -0 -0 -0 -0 -0 -0 -0 -0 -0 -0 -0 -0 -0 -0 -0 -0 -0 -0 -0 -0 -0 -0 -0 -0 -0 -0 -0 -0 -0 -0 -0 -0 -1 -0
-0 -0 -0 -0 -0 -0 -0 -0 -0 -0 -0 -0 -0 -0 -0 -0 -0 -0 -0 -0 -0 -0 -0 -0 -0 -0 -0 -0 -0 -0 -0 -0 -0 -0 -0 -0 -0 -0 -0 -0 -0 -0 -0 -0 -0 -0 -0 -0 -0
-0 -0 -0 -0 -0 -0 -0 -0 -0 -0 -0 -0 -0 -0 -0 -0 -0 -0 -0 -0 -0 -0 -0 -0 -0 -0 -0 -0 -0 -0 -0 -0 -0 -0 -0 -0 -0 -0 -0 -0 -0 -0 -0 -0 -0 -0 -0 -0 -0
-0 -0 -0 -0 -0 -0 -0 -0 -0 -0 -0 -0 -0 -0 -0 -0 -0 -0 -0 -0 -0 -0 -0 -0 -0 -0 -0 -0 -0 -0 -0 -0 -0 -0 -0 -0 -0 -0 -0 -0 -0 -0 -0 -0 -0 -0 -0 -0 -0
-0 -0 -0 -0 -0 -0 -0 -0 -0 -0 -0 -0 -0 -0 -0 -0 -0 -0 -0 -0 -0 -0 -0 -0 -0 -0 -0 -0 -0 -0 -0 -0 -0 -0 -0 -0 -0 -0 -0 -0 -0 -0 -0 -0 -0 -0 -0 -0 -0
-0 -0 -0 -0 -0 -0 -0 -0 -0 -0 -0 -0 -0 -0 -0 -0 -0 -0 -0 -0 -0 -0 -0 -0 -0 -0 -0 -0 -0 -0 -0 -0 -0 -0 -0 -0 -0 -0 -0 -0 -0 -0 -0 -0 -0 -0 -0 -0 -0
-0 -0 -0 -0 -0 -0 -0 -0 -0 -0 -0 -0 -0 -0 -0 -0 -0 -0 -0 -0 -0 -0 -0 -0 -0 -0 -0 -0 -0 -0 -0 -0 -0 -0 -0 -0 -0 -0 -0 -0 -0 -0 -0 -0 -0 -0 -0 -0 -0
-0 -0 -0 -0 -0 -0 -0 -0 -0 -0 -0 -0 -0 -0 -0 -0 -0 -0 -0 -0 -0 -0 -0 -0 -0 -0 -0 -0 -0 -0 -0 -0 -0 -0 -0 -0 -0 -0 -0 -0 -0 -0 -0 -0 -0 -0 -0 -0 -0
-0 -0 -0 -0 -0 -0 -0 -0 -0 -0 -0 -0 -0 -0 -0 -0 -0 -0 -0 -0 -0 -0 -0 -0 -0 -0 -0 -0 -0 -0 -0 -0 -0 -0 -0 -0 -0 -0 -0 -0 -0 -0 -0 -0 -0 -0 -0 -0 -0
-0 -0 -0 -0 -0 -0 -0 -0 -0 -0 -0 -0 -0 -0 -0 -0 -0 -0 -0 -0 -0 -0 -0 -0 -0 -0 -0 -0 -0 -0 -0 -0 -0 -0 -0 -0 -0 -0 -0 -0 -0 -0 -0 -0 -0 -0 -0 -0 -0
-0 -0 -0 -0 -0 -0 -0 -0 -0 -0 -0 -0 -0 -0 -0 -0 -0 -0 -0 -0 -0 -0 -0 -0 -0 -0 -0 -0 -0 -0 -0 -0 -0 -0 -0 -0 -0 -0 -0 -0 -0 -0 -0 -0 -0 -0 -0 -0 -0
-0 -0 -0 -0 -0 -0 -0 -0 -0 -0 -0 -0 -0 -0 -0 -0 -0 -0 -0 -0 -0 -0 -0 -0 -0 -0 -0 -0 -0 -0 -0 -0 -0 -0 -0 -0 -0 -0 -0 -0 -0 -0 -0 -0 -0 -0 -0 -0 -0
-0 -0 -0 -0 -0 -0 -0 -0 -0 -0 -0 -0 -0 -0 -0 -0 -0 -0 -0 -0 -0 -0 -0 -0 -0 -0 -0 -0 -0 -0 -0 -0 -0 -0 -0 -0 -0 -0 -0 -0 -0 -0 -0 -0 -0 -0 -0 -0 -0
-0 -0 -0 -0 -0 -0 -0 -0 -0 -0 -0 -0 -0 -0 -0 -0 -0 -0 -0 -0 -0 -0 -0 -0 -0 -0 -0 -0 -0 -0 -0 -0 -0 -0 -0 -0 -0 -0 -0 -0 -0 -0 -0 -0 -0 -0 -0 -0 -0
-0 -0 -0 -0 -0 -0 -0 -0 -0 -0 -0 -0 -0 -0 -0 -0 -0 -0 -0 -0 -0 -0 -0 -0 -0 -0 -0 -0 -0 -0 -0 -0 -0 -0 -0 -0 -0 -0 -0 -0 -0 -0 -0 -0 -0 -0 -0 -0 -0
-0 -0 -0 -0 -0 -0 -0 -0 -0 -0 -0 -0 -0 -0 -0 -0 -0 -0 -0 -0 -0 -0 -0 -0 -0 -0 -0 -0 -0 -0 -0 -0 -0 -0 -0 -0 -0 -0 -0 -0 -0 -0 -0 -0 -0 -0 -0 -0 -0
-0 -0 -0 -0 -0 -0 -0 -0 -0 -0 -0 -0 -0 -0 -0 -0 -0 -0 -0 -0 -0 -0 -0 -0 -0 -0 -0 -0 -0 -0 -0 -0 -0 -0 -0 -0 -0 -0 -0 -0 -0 -0 -0 -0 -0 -0 -0 -0 -0
-0 -0 -0 -0 -0 -0 -0 -0 -0 -0 -0 -0 -0 -0 -0 -0 -0 -0 -0 -0 -0 -0 -0 -0 -0 -0 -0 -0 -0 -0 -0 -0 -0 -0 -0 -0 -0 -0 -0 -0 -0 -0 -0 -0 -0 -0 -0 -0 -0
-0 -0 -0 -0 -0 -0 -0 -0 -0 -0 -0 -0 -0 -0 -0 -0 -0 -0 -0 -0 -0 -0 -0 -0 -0 -0 -0 -0 -0 -0 -0 -0 -0 -0 -0 -0 -0 -0 -0 -0 -0 -0 -0 -0 -0 -0 -0 -0 -0
-0 -0 -0 -0 -0 -0 -0 -0 -0 -0 -0 -0 -0 -0 -0 -0 -0 -0 -0 -0 -0 -0 -0 -0 -0 -0 -0 -0 -0 -0 -0 -0 -0 -0 -0 -0 -0 -0 -0 -0 -0 -0 -0 -0 -0 -0 -0 -0 -0
-0 -0 -0 -0 -0 -0 -0 -0 -0 -0 -0 -0 -0 -0 -0 -0 -0 -0 -0 -0 -0 -0 -0 -0 -0 -0 -0 -0 -0 -0 -0 -0 -0 -0 -0 -0 -0 -0 -0 -0 -0 -0 -0 -0 -0 -0 -0 -0 -0
-0 -0 -0 -0 -0 -0 -0 -0 -0 -0 -0 -0 -0 -0 -0 -0 -0 -0 -0 -0 -0 -0 -0 -0 -0 -0 -0 -0 -0 -0 -0 -0 -0 -0 -0 -0 -0 -0 -0 -0 -0 -0 -0 -0 -0 -0 -0 -0 -0
-0 -0 -0 -0 -0 -0 -0 -0 -0 -0 -0 -0 -0 -0 -0 -0 -0 -0 -0 -0 -0 -0 -0 -0 -0 -0 -0 -0 -0 -0 -0 -0 -0 -0 -0 -0 -0 -0 -0 -0 -0 -0 -0 -0 -0 -0 -0 -0 -0
Wind_Speed
18 16 17 16 16 20 16 17 13 11 16 14 12 11 9 12 13 14 13 12 13 15 17 19 21 20 21 21 22 22 23 22 21 19 18 18 17 16 15 14 13 13 18 22 20 21 23 17 16
18 17 17 18 17 22 14 13 7 11 8 9 9 11 13 12 13 13 14 14 13 14 17 18 19 19 19 20 21 21 22 22 22 21 19 19 19 18 16 16 14 14 16 19 20 21 22 21 17
20 20 19 21 19 12 14 23 6 5 7 10 11 10 11 12 13 12 15 16 14 14 15 15 16 16 17 17 19 19 20 21 21 22 21 20 19 20 18 17 16 16 16 16 18 18 22 22 22
19 20 20 20 14 13 11 12 13 12 12 13 9 10 10 13 12 14 14 14 14 15 15 15 14 14 16 16 17 18 20 21 21 21 20 20 20 20 20 19 17 16 16 15 16 18 19 21 23
20 21 22 22 14 14 10 13 20 20 13 16 17 13 11 11 13 14 12 12 14 15 15 15 15 15 16 16 17 18 19 20 21 22 22 21 20 20 20 20 19 18 17 17 17 16 17 18 20
21 21 21 24 13 13 11 8 24 8 10 9 9 11 12 12 13 12 12 12 13 15 16 16 15 14 14 15 16 17 18 19 21 22 22 22 22 20 20 20 19 19 18 18 18 17 16 17 18
20 21 20 20 11 14 16 21 25 7 10 13 12 12 12 14 10 10 11 13 14 15 17 17 17 16 16 17 18 19 20 21 21 21 22 22 23 22 21 20 20 19 19 19 18 18 18 16 17
19 19 19 19 16 19 5 13 20 6 9 10 16 5 11 14 11 9 10 12 15 16 17 18 18 18 19 20 20 20 21 22 22 23 23 23 23 22 22 21 20 20 20 19 19 18 18 17 16
19 18 20 19 17 14 2 15 17 15 8 10 12 13 12 12 10 10 9 12 14 16 17 18 18 18 18 20 21 21 21 22 23 23 23 24 24 22 22 21 21 20 20 20 20 19 19 17 17
18 20 19 17 17 11 5 4 8 10 7 10 10 12 10 10 10 9 9 10 13 15 17 17 18 19 19 20 20 21 23 23 23 24 23 24 25 25 24 23 22 21 20 20 21 20 19 18 18
19 19 17 18 19 18 1 9 6 11 10 6 6 7 8 9 8 8 8 10 11 14 15 17 17 18 19 20 21 21 22 23 24 25 24 24 24 25 25 25 23 23 22 20 20 21 20 20 19
17 18 19 19 18 12 3 9 14 21 14 15 9 7 7 7 7 7 7 9 11 13 14 16 17 18 19 19 20 21 22 22 23 24 26 25 25 25 25 25 25 24 23 22 22 21 21 21 20
17 15 16 16 14 12 12 11 17 16 12 12 7 6 5 5 5 5 6 8 9 11 13 15 16 17 18 19 20 21 21 22 23 24 25 25 25 26 26 26 26 26 25 23 23 23 22 22 22
14 12 12 12 12 13 13 14 16 13 7 8 6 4 4 4 4 4 5 6 8 9 11 13 15 16 17 18 19 20 20 22 22 23 25 25 25 25 26 26 26 26 26 25 24 23 23 22 22
8 14 12 13 12 14 14 16 14 10 2 6 5 3 2 2 2 2 3 4 5 7 9 10 12 14 16 17 18 18 20 21 22 23 24 24 25 25 25 25 26 26 26 26 25 24 23 22 23
18 17 19 16 13 15 13 18 8 6 6 5 5 4 2 0 1 2 1 3 4 6 7 9 11 12 14 15 17 18 19 20 21 22 23 24 24 25 24 25 25 26 25 25 24 24 23 23 22
20 22 19 19 16 16 15 19 10 10 11 10 7 5 4 3 2 2 2 3 3 4 5 7 9 10 12 13 15 16 18 19 20 21 22 23 24 24 23 24 24 25 25 25 24 24 24 24 22
23 24 21 22 20 20 20 22 17 14 14 14 11 9 6 5 4 3 3 2 3 3 4 6 7 8 10 12 13 15 17 18 20 21 22 23 23 23 23 23 24 24 24 24 24 23 24 24 21
24 24 23 22 20 21 24 28 25 17 16 15 14 10 8 7 5 5 4 3 2 2 2 3 5 6 8 10 12 14 16 17 18 20 21 22 23 23 23 22 23 23 23 23 23 22 24 24 22
27 26 25 23 21 23 27 33 31 25 19 16 13 11 10 9 7 7 6 5 4 4 3 3 4 5 7 8 12 14 13 16 16 18 20 21 21 22 21 22 22 22 21 22 23 22 22 22 23
29 29 27 29 24 27 31 38 32 28 23 19 17 16 13 10 10 9 9 8 7 7 6 4 4 5 7 10 11 13 14 15 16 16 18 19 19 20 20 20 21 21 20 20 21 22 21 21 22
32 27 25 25 28 35 26 42 32 26 24 21 18 16 15 14 12 11 10 10 10 9 7 7 6 7 8 8 9 10 14 15 14 14 14 17 18 18 19 19 19 19 19 20 20 21 21 20 19
30 24 25 27 31 34 33 36 35 27 25 21 18 18 18 16 14 13 13 12 11 11 10 9 9 9 9 8 9 10 14 12 11 11 12 14 15 16 17 18 18 18 18 19 19 19 20 20 20
20 22 24 26 30 43 36 35 40 30 26 26 25 20 18 16 16 15 13 13 13 12 11 11 11 10 10 9 9 10 12 11 10 11 12 12 13 14 15 16 16 17 17 17 17 18 19 20 19
24 24 34 38 38 44 32 35 43 31 28 27 26 24 18 15 14 14 13 13 13 13 13 12 12 13 11 10 10 10 10 9 9 9 10 11 11 12 13 14 15 15 16 16 17 17 18 19 19
28 30 34 40 41 42 34 43 41 30 30 29 24 20 17 15 14 13 14 13 12 12 12 13 13 13 12 11 10 8 7 8 9 8 9 9 10 10 11 12 13 14 15 15 15 16 16 17 18
30 36 29 35 35 40 37 38 38 33 32 27 24 23 21 18 15 13 13 12 12 12 12 13 13 13 12 11 10 9 8 8 8 8 9 9 9 9 9 11 12 13 14 14 15 15 16 16 17
28 26 33 33 41 46 42 41 39 29 29 28 24 21 19 15 12 10 11 12 12 13 14 13 13 14 13 12 11 11 9 8 8 7 8 8 8 8 9 10 11 12 13 14 14 15 15 15 16
30 32 30 30 35 40 44 41 30 30 28 26 24 20 16 13 12 12 13 14 15 15 14 14 14 15 14 13 13 12 11 10 9 9 8 8 8 9 10 11 11 12 13 13 14 14 15 15 16
30 32 30 36 37 38 39 42 25 22 22 19 16 13 10 10 12 13 14 14 15 16 16 16 16 16 16 16 15 14 13 11 10 10 10 9 9 9 10 11 12 12 13 13 14 14 15 15 16
Wind_Direction
235 235 226 227 231 225 250 248 259 264 251 269 290 307 336 314 294 301 23 5 337 333 344 334 333 329 330 331 334 337 338 337 332 326 322 331 330 332 331 334 335 338 11 34 23 22 25 360 355
228 226 222 223 233 219 264 275 303 274 298 298 292 291 294 300 330 23 31 43 356 333 342 326 329 328 329 332 337 339 341 341 341 336 326 327 330 331 330 332 331 330 344 26 25 22 24 13 357
218 215 210 206 213 257 252 186 42 353 276 271 277 289 286 302 30 15 41 50 4 337 327 313 317 321 325 329 334 337 339 340 340 339 335 330 327 333 331 330 332 332 335 349 17 10 27 16 13
219 212 211 215 252 247 260 71 79 73 245 244 18 304 301 245 291 48 45 20 354 342 321 313 309 313 320 324 328 333 337 339 340 337 333 326 331 332 336 333 324 323 329 328 347 4 15 19 21
217 214 216 223 252 243 243 74 108 135 88 87 217 47 346 322 32 47 23 335 347 337 320 311 312 314 321 326 329 331 335 340 342 343 340 335 327 331 334 333 331 323 322 322 323 347 3 4 10
220 222 224 219 267 256 261 62 132 34 49 299 352 25 358 62 60 33 15 352 323 331 331 330 310 309 312 320 324 330 332 337 342 343 343 344 342 335 333 334 333 332 326 319 319 325 338 347 356
227 229 236 242 277 267 244 199 155 34 47 118 56 341 42 98 57 31 5 0 346 334 339 336 335 322 324 330 333 334 337 341 342 343 342 344 347 346 340 332 332 332 331 328 320 317 320 336 343
240 241 254 252 265 251 305 240 227 10 303 327 253 356 85 107 77 40 13 356 352 344 347 346 341 347 342 354 342 341 339 343 344 345 345 345 344 341 344 340 335 334 334 329 324 322 320 327 336
249 254 255 261 267 274 42 255 248 264 355 332 312 318 349 79 74 60 19 350 5 359 351 353 346 340 337 4 350 347 342 342 343 342 341 344 346 341 341 338 336 335 334 336 329 320 318 325 327
257 256 262 270 271 288 93 314 289 297 352 331 341 335 47 64 79 68 41 18 352 351 357 348 351 350 343 355 345 349 353 351 347 345 338 341 351 350 349 344 340 334 328 331 336 330 323 323 322
260 262 274 276 272 266 4 288 303 294 310 355 84 59 70 69 78 60 31 9 5 357 350 349 356 359 357 354 354 352 350 346 352 352 343 341 347 348 353 350 344 342 334 327 323 330 331 324 320
268 273 276 280 273 284 291 292 281 260 301 301 348 87 74 81 84 72 42 3 359 1 356 357 359 1 357 356 356 354 351 349 346 349 350 350 351 350 351 351 349 346 340 335 328 328 329 339 331
271 279 286 289 284 288 283 288 282 281 307 312 15 57 79 76 72 60 26 20 18 5 2 358 359 360 356 356 352 352 349 350 352 353 350 350 349 351 355 354 354 352 344 335 332 335 333 344 352
279 282 292 293 290 288 287 288 289 296 311 325 345 20 68 80 87 61 24 13 17 19 6 357 354 354 354 356 358 360 358 355 355 354 352 351 351 348 353 356 355 353 350 346 344 344 338 344 345
276 281 287 287 288 291 290 287 289 308 325 311 334 351 37 78 83 91 33 22 34 21 19 12 5 358 357 356 357 2 360 360 359 358 357 353 353 349 353 356 355 350 350 349 350 353 353 347 344
271 275 273 281 283 289 288 286 297 297 303 297 303 314 322 30 154 322 6 24 32 20 13 12 8 7 2 1 359 0 359 1 360 359 358 356 355 352 356 356 352 350 355 354 351 352 356 351 351
265 270 270 277 275 285 279 286 302 301 294 294 293 288 289 285 264 265 305 331 0 18 19 12 6 7 5 3 1 359 357 358 358 358 357 357 356 356 359 360 356 356 357 356 356 356 0 355 354
262 265 270 271 274 274 277 279 293 298 291 288 291 288 278 261 229 244 273 302 330 357 14 13 12 11 7 0 356 356 357 357 357 355 355 356 356 356 356 359 358 360 360 357 357 360 3 2 3
268 265 268 272 278 277 274 277 281 286 289 287 284 278 270 260 263 247 251 250 278 320 351 4 7 6 1 353 352 348 350 354 355 356 355 355 355 354 355 356 357 357 1 360 0 3 6 4 2
266 263 267 274 277 278 280 275 278 279 279 279 277 271 271 274 259 238 240 240 244 259 289 320 341 349 347 346 341 342 352 350 356 359 359 358 357 354 355 356 357 357 0 359 0 3 6 11 7
262 263 266 271 278 278 281 277 278 279 275 275 273 276 272 254 252 244 236 238 245 255 262 277 306 322 327 330 335 340 346 348 349 354 356 358 359 357 357 357 359 0 1 360 359 0 3 5 9
259 268 269 271 274 273 279 276 279 280 277 270 269 263 260 259 257 250 239 241 244 256 260 274 288 302 313 321 324 326 329 332 341 352 0 359 360 360 359 360 1 2 3 2 360 358 3 6 3
263 270 270 273 273 275 273 278 278 279 274 277 274 270 265 259 255 248 241 245 255 258 260 267 278 288 299 305 312 316 322 332 347 355 358 0 1 0 360 1 1 2 2 2 3 2 4 8 9
263 268 274 276 275 270 269 272 276 274 277 281 284 278 273 265 260 259 255 254 258 259 259 263 269 277 286 289 298 304 314 324 331 337 342 348 357 360 1 1 2 1 1 0 0 1 1 4 6
263 259 266 268 266 269 277 271 273 281 281 285 286 289 283 273 261 262 252 252 255 251 256 258 262 270 275 279 285 294 304 314 319 327 334 341 347 351 358 359 359 358 358 358 1 3 5 3 4
257 260 260 265 266 271 276 270 276 282 281 283 287 290 291 288 282 268 260 255 253 254 255 258 260 264 266 270 275 282 294 303 312 320 328 333 337 345 352 352 352 352 353 355 358 359 3 4 3
259 257 266 269 274 274 273 277 282 282 282 281 280 282 285 288 283 276 273 264 258 258 260 260 260 261 263 265 268 272 280 288 301 310 319 325 335 342 345 346 346 345 346 348 351 352 354 358 358
263 266 261 264 266 268 273 276 277 285 284 282 280 278 279 286 289 285 272 275 272 270 271 268 262 260 260 259 258 262 265 275 287 296 302 311 321 328 330 332 334 336 339 339 340 343 347 351 352
259 260 264 268 266 268 273 276 286 282 287 286 283 285 276 276 280 288 289 283 284 280 274 269 265 263 258 254 255 255 257 262 275 282 290 300 309 313 315 318 321 324 327 330 333 336 340 342 344
264 262 257 261 264 267 272 272 294 297 296 299 296 293 293 290 289 293 297 294 287 282 277 271 269 263 260 255 254 253 253 255 261 271 279 288 294 301 304 308 310 313 316 319 322 324 327 329 331